Weather History for KGGE - February, 2011

Change the Weather History Date:

Monday, February 14, 2011

  Actual Average Record
Temperature  
Mean Temperature 54 °F -  
Max Temperature 69 °F 62 °F 69 °F (2011)
Min Temperature 39 °F 38 °F 21 °F (2015)
Degree Days  
Heating Degree Days 11    
Growing Degree Days 4 (Base 50)    
Moisture  
Dew Point 34 °F    
Average Humidity 54    
Maximum Humidity 87    
Minimum Humidity 23    
Precipitation  
Precipitation 0.00 in - - ()
Sea Level Pressure  
Sea Level Pressure 30.08 in    
Wind  
Wind Speed 11 mph (WSW)    
Max Wind Speed 23 mph    
Max Gust Speed 30 mph    
Visibility 10 miles    
Events      
Averages and records for this station are not official NWS values.
T = Trace of Precipitation, MM = Missing Value Source: NWS Daily Summary

Daily Weather History Graph

Daily Weather History Graph

Search for Another Location

Airport or City:

Trip Planner

Search our weather history database for the weather conditions in past years. The results will help you decide how hot, cold, wet, or windy it might be!

Date:

Astronomy

Feb. 14, 2011 Rise Set
Actual Time 7:02 AM EST 6:01 PM EST
Civil Twilight 6:36 AM EST 6:26 PM EST
Nautical Twilight 6:07 AM EST 6:55 PM EST
Astronomical Twilight 5:38 AM EST 7:24 PM EST
Moon 2:09 PM EST (2/14) 3:54 AM EST (2/14)
Length of Visible Light 11h 49m
Length of Day
10h 58m
Waxing Gibbous, 83% of the Moon is Illuminated
Feb 14
Waxing Gibbous
Feb 18
Full
Feb 24
Last Quarter
Mar 4
New
Mar 12
First Quarter

Hourly Weather History & Observations

Time (EST) Temp. Windchill Dew Point Humidity Pressure Visibility Wind Dir Wind Speed Gust Speed Precip Events Conditions
12:15 AM 39.2 °F 34.2 °F 35.6 °F 87% 30.21 in 10.0 mi SW 6.9 mph - N/A   Clear
12:35 AM 39.2 °F 34.2 °F 35.6 °F 87% 30.20 in 10.0 mi SW 6.9 mph - N/A   Clear
12:55 AM 39.2 °F 34.2 °F 35.6 °F 87% 30.20 in 10.0 mi SW 6.9 mph - N/A   Clear
1:15 AM 41.0 °F 35.8 °F 35.6 °F 81% 30.20 in 10.0 mi SW 8.1 mph - N/A   Clear
1:35 AM 42.8 °F 37.5 °F 35.6 °F 76% 30.19 in 10.0 mi WSW 9.2 mph - N/A   Clear
1:55 AM 42.8 °F 37.5 °F 35.6 °F 76% 30.19 in 10.0 mi WSW 9.2 mph - N/A   Clear
2:15 AM 42.8 °F 37.0 °F 35.6 °F 76% 30.17 in 10.0 mi SW 10.4 mph - N/A   Clear
2:35 AM 42.8 °F 37.5 °F 35.6 °F 76% 30.18 in 10.0 mi WSW 9.2 mph - N/A   Clear
2:55 AM 41.0 °F 35.8 °F 35.6 °F 81% 30.17 in 10.0 mi WSW 8.1 mph - N/A   Clear
3:35 AM 41.0 °F 35.8 °F 35.6 °F 81% 30.16 in 10.0 mi SW 8.1 mph - N/A   Clear
3:55 AM 39.2 °F 33.6 °F 33.8 °F 81% 30.16 in 10.0 mi SW 8.1 mph - N/A   Clear
4:15 AM 39.2 °F 33.6 °F 33.8 °F 81% 30.15 in 10.0 mi SW 8.1 mph - N/A   Clear
4:35 AM 41.0 °F 36.4 °F 33.8 °F 76% 30.15 in 10.0 mi WSW 6.9 mph - N/A   Clear
4:55 AM 41.0 °F 35.2 °F 33.8 °F 76% 30.15 in 10.0 mi WSW 9.2 mph - N/A   Clear
5:15 AM 41.0 °F 35.2 °F 33.8 °F 76% 30.15 in 10.0 mi WSW 9.2 mph - N/A   Clear
5:35 AM 41.0 °F 35.2 °F 33.8 °F 76% 30.14 in 10.0 mi WSW 9.2 mph - N/A   Clear
5:55 AM 39.2 °F 33.6 °F 33.8 °F 81% 30.14 in 10.0 mi WSW 8.1 mph - N/A   Clear
6:15 AM 39.2 °F 33.6 °F 33.8 °F 81% 30.14 in 10.0 mi WSW 8.1 mph - N/A   Clear
6:35 AM 41.0 °F 34.7 °F 32.0 °F 70% 30.14 in 10.0 mi WSW 10.4 mph - N/A   Clear
6:55 AM 41.0 °F 35.2 °F 32.0 °F 70% 30.14 in 10.0 mi WSW 9.2 mph - N/A   Clear
7:15 AM 41.0 °F 34.7 °F 32.0 °F 70% 30.14 in 10.0 mi WSW 10.4 mph - N/A   Clear
7:35 AM 41.0 °F 35.2 °F 32.0 °F 70% 30.15 in 10.0 mi SW 9.2 mph - N/A   Clear
7:55 AM 42.8 °F 37.0 °F 32.0 °F 66% 30.14 in 10.0 mi SW 10.4 mph - N/A   Clear
8:15 AM 44.6 °F 38.8 °F 33.8 °F 66% 30.14 in 10.0 mi WSW 11.5 mph - N/A   Clear
8:35 AM 48.2 °F - 33.8 °F 58% 30.14 in 10.0 mi WSW 11.5 mph - N/A   Clear
8:55 AM 51.8 °F - 32.0 °F 47% 30.14 in 10.0 mi WSW 13.8 mph 17.3 mph N/A   Clear
9:15 AM 53.6 °F - 32.0 °F 44% 30.13 in 10.0 mi WSW 13.8 mph 21.9 mph N/A   Clear
9:35 AM 53.6 °F - 32.0 °F 44% 30.12 in 10.0 mi WSW 13.8 mph 19.6 mph N/A   Clear
9:55 AM 55.4 °F - 32.0 °F 41% 30.12 in 10.0 mi WSW 11.5 mph 18.4 mph N/A   Clear
10:15 AM 59.0 °F - 32.0 °F 36% 30.11 in 10.0 mi West 15.0 mph 25.3 mph N/A   Clear
10:35 AM 59.0 °F - 32.0 °F 36% 30.10 in 10.0 mi WSW 13.8 mph 23.0 mph N/A   Clear
10:55 AM 62.6 °F - 32.0 °F 32% 30.09 in 10.0 mi WSW 16.1 mph 21.9 mph N/A   Clear
11:15 AM 62.6 °F - 32.0 °F 32% 30.08 in 10.0 mi WSW 18.4 mph 25.3 mph N/A   Clear
11:35 AM 64.4 °F - 32.0 °F 30% 30.08 in 10.0 mi West 17.3 mph 27.6 mph N/A   Clear
11:55 AM 64.4 °F - 32.0 °F 30% 30.07 in 10.0 mi West 20.7 mph 29.9 mph N/A   Clear
12:15 PM 66.2 °F - 32.0 °F 28% 30.06 in 10.0 mi WSW 19.6 mph 28.8 mph N/A   Clear
12:35 PM 66.2 °F - 32.0 °F 28% 30.04 in 10.0 mi SW 16.1 mph 24.2 mph N/A   Clear
12:55 PM 68.0 °F - 32.0 °F 26% 30.02 in 10.0 mi West 16.1 mph 21.9 mph N/A   Clear
1:15 PM 68.0 °F - 32.0 °F 26% 30.00 in 10.0 mi West 18.4 mph 21.9 mph N/A   Clear
1:35 PM 68.0 °F - 30.2 °F 24% 29.98 in 10.0 mi WSW 19.6 mph 26.5 mph N/A   Clear
2:15 PM 69.8 °F - 30.2 °F 23% 29.96 in 10.0 mi WSW 20.7 mph 27.6 mph N/A   Clear
2:35 PM 69.8 °F - 30.2 °F 23% 29.95 in 10.0 mi WSW 16.1 mph 25.3 mph N/A   Clear
2:55 PM 69.8 °F - 32.0 °F 25% 29.93 in 10.0 mi SW 20.7 mph 26.5 mph N/A   Clear
3:15 PM 69.8 °F - 30.2 °F 23% 29.93 in 10.0 mi WSW 18.4 mph 29.9 mph N/A   Clear
3:35 PM 69.8 °F - 32.0 °F 25% 29.93 in 10.0 mi WSW 16.1 mph 25.3 mph N/A   Clear
3:55 PM 69.8 °F - 32.0 °F 25% 29.92 in 10.0 mi SW 18.4 mph 24.2 mph N/A   Clear
4:15 PM 69.8 °F - 32.0 °F 25% 29.92 in 10.0 mi West 23.0 mph 26.5 mph N/A   Clear
4:35 PM 69.8 °F - 32.0 °F 25% 29.93 in 10.0 mi SSW 12.7 mph 26.5 mph N/A   Clear
4:55 PM 66.2 °F - 35.6 °F 32% 29.93 in 10.0 mi WSW 17.3 mph 23.0 mph N/A   Clear
5:15 PM 62.6 °F - 39.2 °F 42% 29.93 in 10.0 mi SSW 9.2 mph 17.3 mph N/A   Clear
5:35 PM 60.8 °F - 41.0 °F 48% 29.94 in 10.0 mi SSW 6.9 mph - N/A   Clear
5:55 PM 57.2 °F - 41.0 °F 55% 29.95 in 10.0 mi South 6.9 mph - N/A   Clear
6:15 PM 55.4 °F - 41.0 °F 58% 29.96 in 10.0 mi SW 5.8 mph - N/A   Clear
6:35 PM 51.8 °F - 41.0 °F 67% 29.97 in 10.0 mi SW 4.6 mph - N/A   Clear
6:55 PM 51.8 °F - 41.0 °F 67% 29.98 in 10.0 mi SW 6.9 mph - N/A   Clear
7:15 PM 50.0 °F - 41.0 °F 71% 29.99 in 10.0 mi SW 6.9 mph - N/A   Clear
7:35 PM 50.0 °F - 41.0 °F 71% 30.00 in 10.0 mi SSW 5.8 mph - N/A   Clear
7:55 PM 48.2 °F - 41.0 °F 76% 30.01 in 10.0 mi SW 5.8 mph - N/A   Clear
8:15 PM 48.2 °F - 41.0 °F 76% 30.01 in 10.0 mi SW 5.8 mph - N/A   Clear
8:35 PM 50.0 °F - 39.2 °F 66% 30.02 in 10.0 mi SW 4.6 mph - N/A   Clear
8:55 PM 46.4 °F 43.5 °F 37.4 °F 71% 30.03 in 10.0 mi SW 5.8 mph - N/A   Clear
9:15 PM 46.4 °F 42.4 °F 37.4 °F 71% 30.04 in 10.0 mi SW 8.1 mph - N/A   Clear
9:35 PM 50.0 °F - 37.4 °F 62% 30.04 in 10.0 mi SW 5.8 mph - N/A   Clear
9:55 PM 46.4 °F 41.9 °F 37.4 °F 71% 30.04 in 10.0 mi SW 9.2 mph - N/A   Clear
10:15 PM 48.2 °F - 37.4 °F 66% 30.05 in 10.0 mi WSW 8.1 mph - N/A   Clear
10:35 PM 46.4 °F 42.4 °F 37.4 °F 71% 30.06 in 10.0 mi SW 8.1 mph - N/A   Clear
10:55 PM 48.2 °F - 37.4 °F 66% 30.07 in 10.0 mi WSW 8.1 mph - N/A   Clear
11:15 PM 50.0 °F - 37.4 °F 62% 30.07 in 10.0 mi WSW 6.9 mph - N/A   Clear
11:35 PM 50.0 °F - 37.4 °F 62% 30.08 in 10.0 mi West 4.6 mph - N/A   Clear
11:55 PM 50.0 °F - 37.4 °F 62% 30.08 in 10.0 mi West 4.6 mph - N/A   Clear